,,Stat1,,Stat2,,Stat3,,Stat4,,Wind1,,Wind1,
time,status,PR1M_SUM,status,RH1M_AVG,status,SR1M_AVG,status,TA1M_AVG,status,W1dAve1m,status,W1sAve1m,
1999-11-03, 00:01:00,VALID,0,VALID,88.9195,VALID,0,VALID,18.1177,VALID,119,VALID,0.320513,
1999-11-03, 00:02:00,VALID,0,VALID,89.114,VALID,0,VALID,18.1052,VALID,122,VALID,0.476997,
1999-11-03, 00:03:00,VALID,0,VALID,89.1535,VALID,0,VALID,18.1055,VALID,154,VALID,0.218945,
1999-11-03, 00:04:00,VALID,0,VALID,89.0734,VALID,0,VALID,18.1348,VALID,140,VALID,0,
1999-11-03, 00:05:00,VALID,0,VALID,89.0759,VALID,-0.0339617,VALID,18.1251,VALID,136,VALID,0,
1999-11-03, 00:06:00,VALID,0,VALID,89.3264,VALID,0,VALID,18.0858,VALID,128,VALID,0,
1999-11-03, 00:07:00,VALID,0,VALID,89.8096,VALID,0,VALID,18.0055,VALID,127,VALID,0,
1999-11-03, 00:08:00,VALID,0,VALID,90.3577,VALID,-0.0169808,VALID,17.9113,VALID,111,VALID,0,
1999-11-03, 00:09:01,VALID,0,VALID,90.5713,VALID,-0.0169808,VALID,17.8695,VALID,99,VALID,0.229167,
1999-11-03, 00:10:00,VALID,0,VALID,90.6959,VALID,0,VALID,17.8596,VALID,98,VALID,0.553043,
1999-11-03, 00:11:00,VALID,0,VALID,90.8333,VALID,0,VALID,17.8501,VALID,107,VALID,0.620066,
1999-11-03, 00:12:00,VALID,0,VALID,90.9007,VALID,0,VALID,17.8467,VALID,100,VALID,0.615385,
1999-11-03, 00:13:00,VALID,0,VALID,90.9744,VALID,0,VALID,17.8436,VALID,99,VALID,0.427154,
1999-11-03, 00:14:00,VALID,0,VALID,91.1346,VALID,0,VALID,17.8111,VALID,97,VALID,0.419552,
1999-11-03, 00:15:00,VALID,0,VALID,91.2516,VALID,0,VALID,17.8243,VALID,110,VALID,0.357936,
1999-11-03, 00:16:00,VALID,0,VALID,91.3037,VALID,-0.0169808,VALID,17.8146,VALID,112,VALID,0.435033,
1999-11-03, 00:17:00,VALID,0,VALID,91.3305,VALID,0,VALID,17.8303,VALID,111,VALID,0.447716,
1999-11-03, 00:18:00,VALID,0,VALID,91.3177,VALID,0.0169808,VALID,17.863,VALID,102,VALID,0.305339,
1999-11-03, 00:19:00,VALID,0,VALID,91.2249,VALID,0.0509425,VALID,17.882,VALID,118,VALID,0.507813,
1999-11-03, 00:20:00,VALID,0,VALID,91.319,VALID,0.0509425,VALID,17.8984,VALID,111,VALID,0.424805,
1999-11-03, 00:21:00,VALID,0,VALID,91.2885,VALID,0.0509425,VALID,17.9307,VALID,122,VALID,0.26242,
1999-11-03, 00:22:00,VALID,0,VALID,91.0977,VALID,0,VALID,17.9277,VALID,117,VALID,0.388822,
1999-11-03, 00:23:00,VALID,0,VALID,91.4767,VALID,0.0169808,VALID,17.8986,VALID,113,VALID,0.277027,
1999-11-03, 00:24:00,VALID,0,VALID,91.539,VALID,0.0339617,VALID,17.885,VALID,129,VALID,0.172903,
1999-11-03, 00:25:00,VALID,0,VALID,91.5136,VALID,0.0169808,VALID,17.8887,VALID,132,VALID,0,
1999-11-03, 00:26:00,VALID,0,VALID,91.6471,VALID,0.0169808,VALID,17.8882,VALID,132,VALID,0,
1999-11-03, 00:27:00,VALID,0,VALID,91.6407,VALID,0.0509425,VALID,17.8792,VALID,133,VALID,0.110978,
1999-11-03, 00:28:00,VALID,0,VALID,91.6573,VALID,0,VALID,17.8693,VALID,135,VALID,0.0631168,
1999-11-03, 00:29:00,VALID,0,VALID,91.8785,VALID,0.0509425,VALID,17.8531,VALID,137,VALID,0.00495427,
1999-11-03, 00:30:01,VALID,0,VALID,92.1583,VALID,0.0339617,VALID,17.8469,VALID,159,VALID,0,
1999-11-03, 00:31:00,VALID,0,VALID,92.4647,VALID,0.0509425,VALID,17.8367,VALID,163,VALID,0,
1999-11-03, 00:32:00,VALID,0,VALID,92.1977,VALID,0.0679233,VALID,17.8331,VALID,195,VALID,0,
1999-11-03, 00:33:00,VALID,0,VALID,92.3121,VALID,-0.0509425,VALID,17.8344,VALID,206,VALID,0,
1999-11-03, 00:34:00,VALID,0,VALID,92.3121,VALID,-0.0339617,VALID,17.8312,VALID,206,VALID,0,
1999-11-03, 00:35:00,VALID,0,VALID,92.3096,VALID,-0.0679233,VALID,17.8379,VALID,206,VALID,0,
1999-11-03, 00:36:00,VALID,0,VALID,92.7038,VALID,-0.0339617,VALID,17.8023,VALID,206,VALID,0,
1999-11-03, 00:37:00,VALID,0,VALID,92.8729,VALID,-0.0679233,VALID,17.7801,VALID,208,VALID,0,
1999-11-03, 00:38:00,VALID,0,VALID,92.9352,VALID,-0.0509425,VALID,17.745,VALID,209,VALID,0,
1999-11-03, 00:39:00,VALID,0,VALID,92.9988,VALID,-0.0509425,VALID,17.715,VALID,207,VALID,0,
1999-11-03, 00:40:00,VALID,0,VALID,92.8805,VALID,-0.0849042,VALID,17.6735,VALID,155,VALID,0,
1999-11-03, 00:41:00,VALID,0,VALID,93.3281,VALID,-0.0339617,VALID,17.5834,VALID,129,VALID,0,
1999-11-03, 00:42:00,VALID,0,VALID,93.9907,VALID,-0.0679233,VALID,17.5252,VALID,137,VALID,0,
1999-11-03, 00:43:00,VALID,0,VALID,94.1382,VALID,-0.0679233,VALID,17.5091,VALID,139,VALID,0,
1999-11-03, 00:44:00,VALID,0,VALID,94.3581,VALID,-0.0339617,VALID,17.492,VALID,168,VALID,0,
1999-11-03, 00:45:00,VALID,0,VALID,94.3899,VALID,-0.0339617,VALID,17.4955,VALID,168,VALID,0,
1999-11-03, 00:46:00,VALID,0,VALID,94.6595,VALID,-0.0339617,VALID,17.489,VALID,168,VALID,0,
1999-11-03, 00:47:00,VALID,0,VALID,94.4675,VALID,-0.0509425,VALID,17.492,VALID,168,VALID,0,
1999-11-03, 00:48:00,VALID,0,VALID,94.3747,VALID,-0.0339617,VALID,17.489,VALID,168,VALID,0,
1999-11-03, 00:49:00,VALID,0,VALID,94.3047,VALID,-0.0169808,VALID,17.4629,VALID,168,VALID,0,
1999-11-03, 00:50:00,VALID,0,VALID,94.8617,VALID,-0.0339617,VALID,17.4573,VALID,168,VALID,0,
1999-11-03, 00:51:00,VALID,0,VALID,94.9329,VALID,-0.0509425,VALID,17.4664,VALID,168,VALID,0,
1999-11-03, 00:52:00,VALID,0,VALID,94.8833,VALID,-0.0849042,VALID,17.4957,VALID,168,VALID,0,
1999-11-03, 00:53:00,VALID,0,VALID,94.704,VALID,-0.0339617,VALID,17.5213,VALID,168,VALID,0,
1999-11-03, 00:54:00,VALID,0,VALID,94.4878,VALID,-0.0339617,VALID,17.5601,VALID,168,VALID,0,
1999-11-03, 00:55:00,VALID,0,VALID,94.3709,VALID,-0.0679233,VALID,17.5961,VALID,168,VALID,0,
1999-11-03, 00:56:00,VALID,0,VALID,94.4777,VALID,-0.0509425,VALID,17.6183,VALID,168,VALID,0,
1999-11-03, 00:57:00,VALID,0,VALID,94.1178,VALID,-0.0679233,VALID,17.6665,VALID,168,VALID,0,
1999-11-03, 00:58:00,VALID,0,VALID,94.0898,VALID,-0.0679233,VALID,17.6991,VALID,168,VALID,0,
1999-11-03, 00:59:00,VALID,0,VALID,93.8966,VALID,-0.0169808,VALID,17.7189,VALID,168,VALID,0,
1999-11-03, 01:00:00,VALID,0,VALID,93.6524,VALID,-0.0849042,VALID,17.7122,VALID,168,VALID,0,
1999-11-03, 01:01:00,VALID,0,VALID,94.1992,VALID,-0.0339617,VALID,17.7118,VALID,168,VALID,0,
1999-11-03, 01:02:01,VALID,0,VALID,94.2272,VALID,-0.0509425,VALID,17.7411,VALID,168,VALID,0,
1999-11-03, 01:03:00,VALID,0,VALID,94.0428,VALID,-0.0849042,VALID,17.7607,VALID,168,VALID,0,
1999-11-03, 01:04:00,VALID,0,VALID,93.9703,VALID,-0.0509425,VALID,17.7734,VALID,156,VALID,0,
1999-11-03, 01:05:00,VALID,0,VALID,93.997,VALID,-0.0509425,VALID,17.7801,VALID,155,VALID,0,
1999-11-03, 01:06:00,VALID,0,VALID,94.0517,VALID,-0.0849042,VALID,17.7834,VALID,155,VALID,0,
1999-11-03, 01:07:00,VALID,0,VALID,93.9856,VALID,-0.0679233,VALID,17.7767,VALID,155,VALID,0,
1999-11-03, 01:08:00,VALID,0,VALID,94.1,VALID,-0.0849042,VALID,17.7769,VALID,155,VALID,0,
1999-11-03, 01:09:00,VALID,0,VALID,94.0835,VALID,-0.0679233,VALID,17.7672,VALID,155,VALID,0,
1999-11-03, 01:10:00,VALID,0,VALID,94.0174,VALID,-0.0509425,VALID,17.7379,VALID,155,VALID,0,
1999-11-03, 01:11:00,VALID,0,VALID,93.9716,VALID,-0.0339617,VALID,17.712,VALID,155,VALID,0,
1999-11-03, 01:12:00,VALID,0,VALID,94.0937,VALID,-0.0509425,VALID,17.6767,VALID,155,VALID,0,
1999-11-03, 01:13:00,VALID,0,VALID,94.259,VALID,-0.0849042,VALID,17.6478,VALID,146,VALID,0,
1999-11-03, 01:14:00,VALID,0,VALID,94.6633,VALID,-0.0679233,VALID,17.6478,VALID,140,VALID,0.0685547,
1999-11-03, 01:15:00,VALID,0,VALID,94.5743,VALID,-0.0679233,VALID,17.6832,VALID,132,VALID,0.409455,
1999-11-03, 01:16:00,VALID,0,VALID,94.6163,VALID,-0.0339617,VALID,17.6765,VALID,117,VALID,0.552083,
1999-11-03, 01:17:00,VALID,0,VALID,94.5654,VALID,-0.0509425,VALID,17.7353,VALID,92,VALID,0.427365,
1999-11-03, 01:18:00,VALID,0,VALID,94.3581,VALID,-0.0339617,VALID,17.7762,VALID,102,VALID,0.611225,
1999-11-03, 01:19:00,VALID,0,VALID,94.053,VALID,0,VALID,17.8725,VALID,100,VALID,0.398232,
1999-11-03, 01:20:00,VALID,0,VALID,93.7567,VALID,0.0339617,VALID,17.9245,VALID,99,VALID,0.344351,
1999-11-03, 01:21:00,VALID,0,VALID,93.4146,VALID,0.0169808,VALID,17.9764,VALID,102,VALID,0.378405,
1999-11-03, 01:22:00,VALID,0,VALID,93.2188,VALID,0.0339617,VALID,17.9501,VALID,98,VALID,0.597039,
1999-11-03, 01:23:00,VALID,0,VALID,93.229,VALID,0.0509425,VALID,17.9723,VALID,96,VALID,0.5,
1999-11-03, 01:24:01,VALID,0,VALID,93.1323,VALID,0.0509425,VALID,18.0115,VALID,94,VALID,0.3375,
1999-11-03, 01:25:00,VALID,0,VALID,92.9441,VALID,0.0509425,VALID,18.0431,VALID,93,VALID,0.393429,
1999-11-03, 01:26:00,VALID,0,VALID,92.8157,VALID,0.0849042,VALID,18.063,VALID,93,VALID,0.357422,
1999-11-03, 01:27:00,VALID,0,VALID,92.803,VALID,0.0849042,VALID,18.0334,VALID,99,VALID,0.342105,
1999-11-03, 01:28:00,VALID,0,VALID,92.9454,VALID,0.0679233,VALID,18.0048,VALID,103,VALID,0.0375,
1999-11-03, 01:29:00,VALID,0,VALID,93.1565,VALID,0.101885,VALID,17.9884,VALID,106,VALID,0.256373,
1999-11-03, 01:30:00,VALID,0,VALID,93.2557,VALID,0.0509425,VALID,17.9656,VALID,106,VALID,0.198317,
1999-11-03, 01:31:00,VALID,0,VALID,93.337,VALID,0.0509425,VALID,17.9662,VALID,107,VALID,0.0707589,
1999-11-03, 01:32:00,VALID,0,VALID,93.3561,VALID,0.0509425,VALID,17.9499,VALID,112,VALID,0.0785362,
1999-11-03, 01:33:00,VALID,0,VALID,93.4731,VALID,0.0679233,VALID,17.9372,VALID,112,VALID,0,
1999-11-03, 01:34:00,VALID,0,VALID,93.5609,VALID,-0.0679233,VALID,17.9189,VALID,112,VALID,0,
1999-11-03, 01:35:00,VALID,0,VALID,93.6537,VALID,-0.0849042,VALID,17.9122,VALID,112,VALID,0,
1999-11-03, 01:36:01,VALID,0,VALID,93.6282,VALID,-0.0849042,VALID,17.9027,VALID,112,VALID,0,
1999-11-03, 01:37:00,VALID,0,VALID,93.6028,VALID,-0.0169808,VALID,17.8863,VALID,113,VALID,0,
1999-11-03, 01:38:00,VALID,0,VALID,93.543,VALID,-0.0679233,VALID,17.8607,VALID,141,VALID,0.141226,
1999-11-03, 01:39:00,VALID,0,VALID,93.6499,VALID,-0.0169808,VALID,17.8083,VALID,141,VALID,0,
1999-11-03, 01:40:00,VALID,0,VALID,93.9919,VALID,-0.0339617,VALID,17.7898,VALID,141,VALID,0,
1999-11-03, 01:41:00,VALID,0,VALID,94.259,VALID,-0.0509425,VALID,17.7767,VALID,141,VALID,0,
1999-11-03, 01:42:00,VALID,0,VALID,94.2539,VALID,-0.0849042,VALID,17.7575,VALID,141,VALID,0,
1999-11-03, 01:43:00,VALID,0,VALID,94.3429,VALID,-0.0679233,VALID,17.7316,VALID,141,VALID,0,
1999-11-03, 01:44:00,VALID,0,VALID,94.3861,VALID,-0.0509425,VALID,17.7088,VALID,141,VALID,0.104307,
1999-11-03, 01:45:00,VALID,0,VALID,94.3047,VALID,-0.0169808,VALID,17.6569,VALID,140,VALID,0.179071,
1999-11-03, 01:46:00,VALID,0,VALID,94.3149,VALID,-0.0679233,VALID,17.5989,VALID,110,VALID,0.435855,
1999-11-03, 01:47:00,VALID,0,VALID,94.9774,VALID,-0.0849042,VALID,17.5472,VALID,94,VALID,0.799079,
1999-11-03, 01:48:00,VALID,0,VALID,95.2966,VALID,-0.0509425,VALID,17.5927,VALID,86,VALID,0.801082,
1999-11-03, 01:49:00,VALID,0,VALID,95.1961,VALID,-0.0679233,VALID,17.6569,VALID,90,VALID,0.761102,
1999-11-03, 01:50:00,VALID,0,VALID,94.8731,VALID,-0.0679233,VALID,17.6991,VALID,96,VALID,0.665206,
1999-11-03, 01:51:00,VALID,0,VALID,94.6443,VALID,-0.0169808,VALID,17.728,VALID,94,VALID,0.655078,
1999-11-03, 01:52:00,VALID,0,VALID,94.6328,VALID,-0.0679233,VALID,17.7478,VALID,91,VALID,0.517228,
1999-11-03, 01:53:00,VALID,0,VALID,94.7727,VALID,-0.0169808,VALID,17.8152,VALID,93,VALID,0.606641,
1999-11-03, 01:54:00,VALID,0,VALID,94.4154,VALID,-0.0849042,VALID,17.8545,VALID,121,VALID,0.371299,
1999-11-03, 01:55:00,VALID,0,VALID,94.175,VALID,-0.0679233,VALID,17.8609,VALID,116,VALID,0.462305,
1999-11-03, 01:56:00,VALID,0,VALID,94.1878,VALID,-0.0509425,VALID,17.8478,VALID,114,VALID,0.459293,
1999-11-03, 01:57:00,VALID,0,VALID,94.2119,VALID,-0.0339617,VALID,17.8418,VALID,110,VALID,0.422476,
1999-11-03, 01:58:00,VALID,0,VALID,94.1992,VALID,-0.0679233,VALID,17.812,VALID,99,VALID,0.617188,
1999-11-03, 01:59:00,VALID,0,VALID,94.0466,VALID,-0.0339617,VALID,17.7896,VALID,91,VALID,0.737459,
1999-11-03, 02:00:00,VALID,0,VALID,94.1585,VALID,-0.0509425,VALID,17.715,VALID,86,VALID,0.807893,
1999-11-03, 02:01:00,VALID,0,VALID,94.8375,VALID,-0.0509425,VALID,17.6892,VALID,87,VALID,0.675465,
1999-11-03, 02:02:00,VALID,0,VALID,95.0105,VALID,-0.0509425,VALID,17.7088,VALID,82,VALID,0.585304,
1999-11-03, 02:03:00,VALID,0,VALID,95.1147,VALID,-0.0509425,VALID,17.7997,VALID,102,VALID,0.837993,
1999-11-03, 02:04:00,VALID,0,VALID,94.245,VALID,0,VALID,17.9501,VALID,100,VALID,0.879112,
1999-11-03, 02:05:00,VALID,0,VALID,93.5481,VALID,0.0509425,VALID,17.9882,VALID,85,VALID,0.771835,
1999-11-03, 02:06:00,VALID,0,VALID,93.3637,VALID,0.0679233,VALID,18.0272,VALID,102,VALID,0.539931,
1999-11-03, 02:07:00,VALID,0,VALID,93.2328,VALID,0.0679233,VALID,18.0401,VALID,100,VALID,0.0327691,
1999-11-03, 02:08:00,VALID,0,VALID,93.1298,VALID,0.0849042,VALID,18.0395,VALID,100,VALID,0,
1999-11-03, 02:09:01,VALID,0,VALID,93.0522,VALID,0.0849042,VALID,18.0725,VALID,100,VALID,0.000200321,
1999-11-03, 02:10:00,VALID,0,VALID,92.7343,VALID,0.0679233,VALID,18.1436,VALID,104,VALID,0.687901,
1999-11-03, 02:11:00,VALID,0,VALID,92.4406,VALID,0.0849042,VALID,18.1632,VALID,103,VALID,0.719806,
1999-11-03, 02:12:00,VALID,0,VALID,92.3884,VALID,0.0679233,VALID,18.1466,VALID,99,VALID,0.502878,
1999-11-03, 02:13:00,VALID,0,VALID,92.1608,VALID,0.101885,VALID,18.1565,VALID,98,VALID,0.253701,
1999-11-03, 02:14:00,VALID,0,VALID,92.4876,VALID,0.0849042,VALID,18.1468,VALID,70,VALID,0.0326522,
1999-11-03, 02:15:00,VALID,0,VALID,92.6084,VALID,0.0679233,VALID,18.163,VALID,71,VALID,0,
1999-11-03, 02:16:00,VALID,0,VALID,92.3503,VALID,0.0679233,VALID,18.1727,VALID,94,VALID,0,
1999-11-03, 02:17:00,VALID,0,VALID,92.1506,VALID,0.0679233,VALID,18.1533,VALID,108,VALID,0,
1999-11-03, 02:18:00,VALID,0,VALID,92.1646,VALID,0.0679233,VALID,18.1244,VALID,108,VALID,0,
1999-11-03, 02:19:00,VALID,0,VALID,92.4431,VALID,-0.0849042,VALID,18.0805,VALID,100,VALID,0,
1999-11-03, 02:20:01,VALID,0,VALID,93.1234,VALID,-0.0169808,VALID,18.0477,VALID,100,VALID,0,
1999-11-03, 02:21:00,VALID,0,VALID,92.7966,VALID,-0.0679233,VALID,18.035,VALID,105,VALID,0,
1999-11-03, 02:22:00,VALID,0,VALID,92.7775,VALID,-0.0339617,VALID,18.0357,VALID,109,VALID,0,
1999-11-03, 02:23:00,VALID,0,VALID,92.7114,VALID,-0.0339617,VALID,18.0318,VALID,109,VALID,0,
1999-11-03, 02:24:00,VALID,0,VALID,92.5919,VALID,-0.0849042,VALID,18.0385,VALID,107,VALID,0,
1999-11-03, 02:25:00,VALID,0,VALID,92.8958,VALID,-0.0849042,VALID,18.0417,VALID,105,VALID,0,
1999-11-03, 02:26:00,VALID,0,VALID,92.9505,VALID,-0.0509425,VALID,18.0609,VALID,103,VALID,0,
1999-11-03, 02:27:00,VALID,0,VALID,92.5359,VALID,-0.0679233,VALID,18.0639,VALID,103,VALID,0,
1999-11-03, 02:28:00,VALID,0,VALID,92.1392,VALID,-0.0849042,VALID,18.0512,VALID,106,VALID,0,
1999-11-03, 02:29:00,VALID,0,VALID,92.4991,VALID,-0.0509425,VALID,17.993,VALID,114,VALID,0,
1999-11-03, 02:30:01,VALID,0,VALID,92.8678,VALID,-0.0509425,VALID,17.9314,VALID,114,VALID,0,
1999-11-03, 02:31:01,VALID,0,VALID,93.0115,VALID,-0.0849042,VALID,17.8896,VALID,106,VALID,0,
1999-11-03, 02:32:00,VALID,0,VALID,92.8322,VALID,-0.101885,VALID,17.9154,VALID,94,VALID,0,
1999-11-03, 02:33:00,VALID,0,VALID,92.405,VALID,-0.0679233,VALID,17.9607,VALID,123,VALID,0,
1999-11-03, 02:34:00,VALID,0,VALID,92.4215,VALID,0.0339617,VALID,17.9173,VALID,100,VALID,0,
1999-11-03, 02:35:00,VALID,0,VALID,92.4418,VALID,0.0169808,VALID,17.9245,VALID,109,VALID,0,
1999-11-03, 02:36:00,VALID,0,VALID,92.5232,VALID,0.0169808,VALID,17.8882,VALID,95,VALID,0,
1999-11-03, 02:37:00,VALID,0,VALID,92.6199,VALID,0.0169808,VALID,17.8695,VALID,95,VALID,0.536458,
1999-11-03, 02:38:00,VALID,0,VALID,92.8284,VALID,0.0339617,VALID,17.8434,VALID,92,VALID,1.03758,
1999-11-03, 02:39:00,VALID,0,VALID,92.8564,VALID,0.0509425,VALID,17.8658,VALID,98,VALID,0.739926,
1999-11-03, 02:40:00,VALID,0,VALID,92.6249,VALID,0,VALID,17.9111,VALID,97,VALID,0.774671,
1999-11-03, 02:41:00,VALID,0,VALID,92.5245,VALID,0.0169808,VALID,17.9143,VALID,87,VALID,0.947716,
1999-11-03, 02:42:01,VALID,0,VALID,92.3922,VALID,0.0169808,VALID,17.9762,VALID,88,VALID,0.669271,
1999-11-03, 02:43:00,VALID,0,VALID,92.2587,VALID,0.0169808,VALID,17.9891,VALID,93,VALID,0.768298,
1999-11-03, 02:44:00,VALID,0,VALID,92.0743,VALID,0,VALID,17.9986,VALID,95,VALID,0.703506,
1999-11-03, 02:45:00,VALID,0,VALID,92.2447,VALID,0.0509425,VALID,17.9469,VALID,96,VALID,0.644141,
1999-11-03, 02:46:00,VALID,0,VALID,92.3121,VALID,0.0339617,VALID,17.9434,VALID,97,VALID,0.749199,
1999-11-03, 02:47:00,VALID,0,VALID,92.2969,VALID,0.0169808,VALID,17.921,VALID,107,VALID,0.383984,
1999-11-03, 02:48:00,VALID,0,VALID,92.4317,VALID,0.0679233,VALID,17.8693,VALID,106,VALID,0.611637,
1999-11-03, 02:49:00,VALID,0,VALID,92.7826,VALID,-0.0339617,VALID,17.8284,VALID,99,VALID,0.743555,
1999-11-03, 02:50:00,VALID,0,VALID,92.775,VALID,-0.0679233,VALID,17.8506,VALID,84,VALID,0.787007,
1999-11-03, 02:51:00,VALID,0,VALID,92.6033,VALID,-0.0849042,VALID,17.906,VALID,74,VALID,0.66246,
1999-11-03, 02:52:00,VALID,0,VALID,92.2918,VALID,-0.0849042,VALID,17.948,VALID,114,VALID,0.394196,
1999-11-03, 02:53:01,VALID,0,VALID,92.2218,VALID,-0.0509425,VALID,17.9411,VALID,118,VALID,0.274877,
1999-11-03, 02:54:00,VALID,0,VALID,92.2931,VALID,-0.0509425,VALID,17.9316,VALID,118,VALID,0.0723157,
1999-11-03, 02:55:00,VALID,0,VALID,92.321,VALID,-0.0849042,VALID,17.9443,VALID,118,VALID,0,
1999-11-03, 02:56:00,VALID,0,VALID,92.2308,VALID,-0.101885,VALID,17.9549,VALID,118,VALID,0,
1999-11-03, 02:57:00,VALID,0,VALID,92.068,VALID,-0.0679233,VALID,17.9316,VALID,115,VALID,0,
1999-11-03, 02:58:00,VALID,0,VALID,92.4075,VALID,-0.0509425,VALID,17.9154,VALID,93,VALID,0.635691,
1999-11-03, 02:59:00,VALID,0,VALID,92.1684,VALID,-0.0339617,VALID,17.9323,VALID,92,VALID,0.66266,
1999-11-03, 03:00:00,VALID,0,VALID,92.3872,VALID,-0.0679233,VALID,17.8863,VALID,101,VALID,0.811415,
1999-11-03, 03:01:00,VALID,0,VALID,92.2422,VALID,-0.0679233,VALID,17.8706,VALID,102,VALID,0.917101,
1999-11-03, 03:02:00,VALID,0,VALID,92.4596,VALID,-0.0509425,VALID,17.8122,VALID,96,VALID,0.832617,
1999-11-03, 03:03:00,VALID,0,VALID,92.8399,VALID,-0.0169808,VALID,17.7504,VALID,86,VALID,0.838341,
1999-11-03, 03:04:01,VALID,0,VALID,92.9975,VALID,-0.0339617,VALID,17.731,VALID,87,VALID,0.608373,
1999-11-03, 03:05:00,VALID,0,VALID,93.4044,VALID,-0.0169808,VALID,17.7026,VALID,106,VALID,0.318412,
1999-11-03, 03:06:00,VALID,0,VALID,93.5036,VALID,-0.0679233,VALID,17.6926,VALID,104,VALID,0.390831,
1999-11-03, 03:07:00,VALID,0,VALID,93.6588,VALID,-0.0679233,VALID,17.6698,VALID,103,VALID,0.443051,
1999-11-03, 03:08:00,VALID,0,VALID,93.8635,VALID,-0.0679233,VALID,17.6569,VALID,70,VALID,0.480769,
1999-11-03, 03:09:00,VALID,0,VALID,94.1242,VALID,-0.0849042,VALID,17.6829,VALID,72,VALID,0.389824,
1999-11-03, 03:10:00,VALID,0,VALID,93.8152,VALID,-0.0509425,VALID,17.7963,VALID,69,VALID,0.89412,
1999-11-03, 03:11:00,VALID,0,VALID,92.7928,VALID,-0.0339617,VALID,18.0283,VALID,86,VALID,0.732279,
1999-11-03, 03:12:00,VALID,0,VALID,91.7336,VALID,-0.0679233,VALID,18.1616,VALID,91,VALID,0.589063,
1999-11-03, 03:13:00,VALID,0,VALID,91.2872,VALID,-0.0339617,VALID,18.1907,VALID,89,VALID,0.435497,
1999-11-03, 03:14:00,VALID,0,VALID,91.1575,VALID,-0.0169808,VALID,18.1807,VALID,99,VALID,0.35,
1999-11-03, 03:15:00,VALID,0,VALID,91.2923,VALID,-0.0849042,VALID,18.168,VALID,100,VALID,0.249589,
1999-11-03, 03:16:00,VALID,0,VALID,91.2885,VALID,-0.0679233,VALID,18.1643,VALID,100,VALID,0.261523,
1999-11-03, 03:17:00,VALID,0,VALID,91.1499,VALID,-0.101885,VALID,18.2103,VALID,74,VALID,0.61986,
1999-11-03, 03:18:00,VALID,0,VALID,90.9452,VALID,-0.0679233,VALID,18.2585,VALID,111,VALID,0.303285,
1999-11-03, 03:19:00,VALID,0,VALID,90.9604,VALID,-0.101885,VALID,18.2191,VALID,111,VALID,0.0524554,
1999-11-03, 03:20:00,VALID,0,VALID,91.0927,VALID,-0.101885,VALID,18.1971,VALID,111,VALID,0,
1999-11-03, 03:21:00,VALID,0,VALID,91.1562,VALID,-0.0509425,VALID,18.1606,VALID,111,VALID,0,
1999-11-03, 03:22:00,VALID,0,VALID,91.2999,VALID,-0.0849042,VALID,18.1288,VALID,111,VALID,0,
1999-11-03, 03:23:00,VALID,0,VALID,91.5899,VALID,-0.101885,VALID,18.0736,VALID,111,VALID,0,
1999-11-03, 03:24:01,VALID,0,VALID,91.8175,VALID,-0.0849042,VALID,18.0219,VALID,111,VALID,0,
1999-11-03, 03:25:00,VALID,0,VALID,91.9942,VALID,-0.101885,VALID,18.0032,VALID,111,VALID,0,
1999-11-03, 03:26:00,VALID,0,VALID,92.0362,VALID,-0.0849042,VALID,17.9771,VALID,111,VALID,0,
1999-11-03, 03:27:00,VALID,0,VALID,92.2714,VALID,-0.0849042,VALID,17.8859,VALID,102,VALID,0.359375,
1999-11-03, 03:28:00,VALID,0,VALID,92.6466,VALID,-0.101885,VALID,17.7958,VALID,101,VALID,0.630642,
1999-11-03, 03:29:00,VALID,0,VALID,93.0993,VALID,-0.0849042,VALID,17.751,VALID,103,VALID,0.460156,
1999-11-03, 03:30:00,VALID,0,VALID,93.0726,VALID,-0.101885,VALID,17.7374,VALID,86,VALID,0.54347,
1999-11-03, 03:31:00,VALID,0,VALID,92.9797,VALID,-0.0679233,VALID,17.6998,VALID,82,VALID,0.457332,
1999-11-03, 03:32:00,VALID,0,VALID,93.3396,VALID,-0.0849042,VALID,17.6252,VALID,82,VALID,0.339527,
1999-11-03, 03:33:00,VALID,0,VALID,93.7745,VALID,-0.0849042,VALID,17.5924,VALID,94,VALID,0.474712,
1999-11-03, 03:34:00,VALID,0,VALID,93.8088,VALID,0.0169808,VALID,17.5911,VALID,89,VALID,0.572985,
1999-11-03, 03:35:00,VALID,0,VALID,93.7033,VALID,0.0509425,VALID,17.62,VALID,93,VALID,0.389223,
1999-11-03, 03:36:01,VALID,0,VALID,93.3231,VALID,0,VALID,17.6269,VALID,107,VALID,0.342348,
1999-11-03, 03:37:00,VALID,0,VALID,93.3625,VALID,0.0169808,VALID,17.5846,VALID,107,VALID,0.348684,
1999-11-03, 03:38:00,VALID,0,VALID,93.7084,VALID,0,VALID,17.5495,VALID,104,VALID,0.489901,
1999-11-03, 03:39:00,VALID,0,VALID,93.8889,VALID,0,VALID,17.5332,VALID,94,VALID,0.428711,
1999-11-03, 03:40:00,VALID,0,VALID,93.9919,VALID,0.0169808,VALID,17.5297,VALID,97,VALID,0.424479,
1999-11-03, 03:41:00,VALID,0,VALID,93.8406,VALID,0,VALID,17.5784,VALID,97,VALID,0.321094,
1999-11-03, 03:42:00,VALID,0,VALID,93.6359,VALID,0,VALID,17.5948,VALID,98,VALID,0.0629112,
1999-11-03, 03:43:00,VALID,0,VALID,93.4451,VALID,0,VALID,17.601,VALID,99,VALID,0.0162109,
1999-11-03, 03:44:00,VALID,0,VALID,93.5367,VALID,0.0169808,VALID,17.5782,VALID,119,VALID,0.184622,
1999-11-03, 03:45:00,VALID,0,VALID,93.1005,VALID,0,VALID,17.523,VALID,121,VALID,0.360577,
1999-11-03, 03:46:00,VALID,0,VALID,94.1089,VALID,0.0169808,VALID,17.5105,VALID,114,VALID,0.36183,
1999-11-03, 03:47:00,VALID,0,VALID,93.9347,VALID,0,VALID,17.5467,VALID,111,VALID,0.266036,
1999-11-03, 03:48:00,VALID,0,VALID,94.0746,VALID,0,VALID,17.5523,VALID,119,VALID,0,
1999-11-03, 03:49:00,VALID,0,VALID,93.66,VALID,0.0169808,VALID,17.5659,VALID,123,VALID,0,
1999-11-03, 03:50:00,VALID,0,VALID,93.8686,VALID,0,VALID,17.5726,VALID,123,VALID,0,
1999-11-03, 03:51:00,VALID,0,VALID,93.7999,VALID,0.0169808,VALID,17.5758,VALID,123,VALID,0,
1999-11-03, 03:52:00,VALID,0,VALID,93.6015,VALID,-0.0169808,VALID,17.5982,VALID,123,VALID,0,
1999-11-03, 03:53:00,VALID,0,VALID,93.5354,VALID,0.0169808,VALID,17.5982,VALID,123,VALID,0,
1999-11-03, 03:54:00,VALID,0,VALID,93.6626,VALID,0.0169808,VALID,17.6045,VALID,123,VALID,0,
1999-11-03, 03:55:00,VALID,0,VALID,93.4184,VALID,0.0169808,VALID,17.6271,VALID,123,VALID,0,
1999-11-03, 03:56:00,VALID,0,VALID,93.3116,VALID,0.0339617,VALID,17.6236,VALID,124,VALID,0,
1999-11-03, 03:57:00,VALID,0,VALID,93.2862,VALID,0.0169808,VALID,17.6333,VALID,126,VALID,0,
1999-11-03, 03:58:01,VALID,0,VALID,93.1845,VALID,0.0169808,VALID,17.6435,VALID,118,VALID,0,
1999-11-03, 03:59:00,VALID,0,VALID,92.6847,VALID,0.0339617,VALID,17.6661,VALID,110,VALID,0,
1999-11-03, 04:00:00,VALID,0,VALID,93.1819,VALID,0.0509425,VALID,17.6174,VALID,119,VALID,0,
1999-11-03, 04:01:00,VALID,0,VALID,93.1934,VALID,0.0339617,VALID,17.553,VALID,110,VALID,0.243215,
1999-11-03, 04:02:00,VALID,0,VALID,93.5011,VALID,0.0169808,VALID,17.5528,VALID,118,VALID,0.495192,
1999-11-03, 04:03:00,VALID,0,VALID,93.2607,VALID,0.0339617,VALID,17.5849,VALID,117,VALID,0.42488,
1999-11-03, 04:04:00,VALID,0,VALID,93.0815,VALID,-0.0679233,VALID,17.606,VALID,121,VALID,0.553248,
1999-11-03, 04:05:00,VALID,0,VALID,93.0433,VALID,-0.101885,VALID,17.5899,VALID,115,VALID,0.511052,
1999-11-03, 04:06:00,VALID,0,VALID,92.3134,VALID,-0.0509425,VALID,17.5213,VALID,115,VALID,0.429492,
1999-11-03, 04:07:00,VALID,0,VALID,93.1654,VALID,-0.101885,VALID,17.438,VALID,119,VALID,0.580329,
1999-11-03, 04:08:00,VALID,0,VALID,93.6206,VALID,-0.101885,VALID,17.389,VALID,126,VALID,0.426562,